User: anonymous   Login
Location: 5810 Zion Rd, Cleves, OH 45002, USA
(39.1922°N, 84.7113°W)
Time: 21:48:49
(UTC-05:00)
Language:

DX 1 - Orbit

View from above orbital plane
View from above orbital plane
View from above satellite
View from above satellite

Ground track
Ground track

The orbit data is extracted from the following two-line orbital elements,

1 40071U 14037C   20018.82020082  .00000061  00000-0  15384-4 0  9992
2 40071  98.4462 188.9759 0007166 258.9014 101.1392 14.81325946298956
Epoch (UTC): 18 January 2020 19:41:05
Eccentricity: 0.0007166
inclination: 98.4462°
perigee height: 620 km
apogee height: 630 km
right ascension of ascending node: 188.9759°
argument of perigee: 258.9014°
revolutions per day: 14.81325946
mean anomaly at epoch: 101.1392°
orbit number at epoch: 29895

The dashed part of the orbit path shows where the satellite is in the earth's shadow,  

DLR